999  
NZUS01 KABQ 280510  
RWRABQ  
NEW MEXICO REGIONAL WEATHER ROUNDUP  
NATIONAL WEATHER SERVICE ALBUQUERQUE NM  
1000 PM MST SUN NOV 27 2022  
 
-----NORTHERN NEW MEXICO AND NEARBY AREAS-----  
 
 
CITY SKY/WX TMP DP RH WIND PRES REMARKS
 
ALBUQUERQUE FAIR 39 15 37 CALM 30.03F  
BELEN FAIR 33 10 38 CALM 30.04S  
SOCORRO FAIR 35 11 37 W6 30.03S WCI 30  
 
CITY SKY/WX TMP DP RH WIND PRES REMARKS
 
SANTA FE CLEAR 26 13 57 NW8 30.01S WCI 18  
LOS ALAMOS CLEAR 33 14 44 CALM 30.03S HAZE  
TAOS CLEAR 26 18 71 SE3 30.05S  
ANGEL FIRE FAIR 26 14 60 NE3 30.02S  
FARMINGTON CLEAR 26 13 57 NE6 30.02S WCI 19  
GRANTS PTCLDY 19 7 59 N5 30.08S WCI 12  
GALLUP CLEAR 22 12 65 E3 30.06S  
FLAGSTAFF CLEAR 27 13 55 NW3 30.10S  
DURANGO CLEAR 21 14 74 E3 30.03S  
 
CITY SKY/WX TMP DP RH WIND PRES REMARKS
 
ALAMOSA CLEAR 18 14 84 SE3 29.97R  
DENVER PTCLDY 42 12 29 W10 29.70F  
CLAYTON CLEAR 31 23 72 SW10 29.83F WCI 22  
RATON CLEAR 28 20 71 NE6 29.83F WCI 22  
LAS VEGAS CLEAR N/A N/A N/A VRB6 29.89F  
CLINES CORNERS CLEAR 30 14 51 W20 29.98F WCI 17  
SANTA ROSA FAIR 41 18 39 SW6 29.91F  
TUCUMCARI CLEAR 38 23 55 W13 29.84F  
CLOVIS (AFB) CLEAR 35 35 99 SW14 29.92F WCI 26  
CLOVIS CLEAR 32 30 92 W10 29.94S WCI 24  
AMARILLO CLEAR 35 27 72 S13 29.89F WCI 26  
 
-----SOUTHERN NEW MEXICO AND NEARBY AREAS-----  
 
 
CITY SKY/WX TMP DP RH WIND PRES REMARKS
 
T OR C CLEAR 42 12 29 W5 30.03R  
DEMING CLEAR 36 12 37 S8 30.07S  
TUCSON CLEAR 47 14 26 SE8 30.08F  
EL PASO CLEAR 49 13 23 CALM 30.04F  
LAS CRUCES CLEAR 45 6 20 W13 30.05F  
 
CITY SKY/WX TMP DP RH WIND PRES REMARKS
 
ALAMOGORDO CLEAR 39 12 33 SE5 30.05S  
RUIDOSO N/A 37 7 28 W6 30.03F  
ROSWELL CLEAR 39 35 86 CALM 29.96F  
CARLSBAD CLEAR 37 33 85 SW6 29.98F  
HOBBS CLEAR 34 30 86 SW6 29.99F WCI 29  
 
CLICK HERE TO GO TO PREVIOUS BULLETINS.

The Nexlab NM Page Main Text Page